Theta_e
339 337 341 332 335 342 336 339 337 336 338 336 336 338 337 339 342 339 340 341 341 340 340 339 340 339 342 338 338 339 338 336 337 336 336 336 334 334 334 333 332 331
338 341 346 342 343 343 338 336 337 334 336 336 335 336 339 338 338 339 340 339 340 338 339 339 338 337 337 337 336 336 335 336 334 341 335 334 333 333 332 332 331 331
339 341 338 335 336 337 335 335 339 336 334 334 339 338 337 340 339 339 336 337 336 337 338 338 337 337 337 337 336 336 335 333 334 336 335 332 334 332 331 332 331 331
339 339 336 337 336 337 337 338 335 334 334 336 337 340 340 339 336 334 337 344 338 337 337 338 337 336 335 335 335 334 335 335 335 335 333 334 334 334 332 332 334 332
337 338 337 338 337 339 337 333 332 334 335 336 336 334 336 336 336 336 335 336 336 336 335 335 337 337 337 336 335 334 335 335 336 335 333 332 333 335 335 333 331 330
339 337 337 337 338 336 335 332 333 332 332 334 334 339 338 337 334 333 335 333 334 333 332 333 333 335 335 335 334 333 334 335 336 336 335 334 334 335 336 333 329 328
339 337 337 337 337 337 333 332 332 335 333 332 334 333 335 333 334 334 334 334 334 335 333 333 334 334 336 335 334 334 334 334 334 335 334 333 334 334 334 331 330 329
337 337 337 337 336 335 336 334 333 333 334 335 333 334 335 333 333 334 336 336 334 333 334 335 335 334 334 335 334 334 333 336 334 333 332 331 331 331 332 333 330 327
337 335 336 336 335 336 334 335 334 333 334 334 333 333 336 334 334 334 335 334 334 334 333 333 334 334 335 335 334 333 332 332 334 333 332 331 331 331 331 330 328 328
337 337 337 336 335 336 335 335 335 333 335 334 334 334 333 337 336 335 335 334 334 334 333 333 334 334 334 335 334 333 332 332 331 331 331 331 331 331 330 329 327 326
337 338 337 336 336 336 335 335 333 331 335 335 333 332 332 333 335 336 334 334 334 333 333 333 334 334 334 335 335 335 334 333 332 331 331 331 331 331 333 330 328 327
336 337 336 335 335 334 333 333 332 332 329 331 332 333 333 333 331 332 333 330 331 332 332 331 331 332 334 335 335 336 335 334 333 332 332 332 331 331 330 329 328 327
336 335 335 334 335 334 333 333 333 330 330 330 332 331 331 330 329 329 330 331 332 333 334 332 332 331 331 333 335 335 334 332 332 332 332 332 332 331 330 329 327 326
336 336 336 335 336 336 335 334 332 332 332 333 333 330 330 330 329 329 329 332 331 330 329 329 329 328 329 332 334 335 334 334 333 333 332 331 331 330 329 328 327 327
336 336 337 337 338 336 336 334 332 332 333 332 331 333 335 331 331 331 330 330 330 329 329 330 333 333 333 335 336 336 335 335 334 333 332 330 328 328 328 328 327 327
337 337 337 336 336 335 334 333 332 332 333 332 333 333 332 335 333 332 333 330 328 329 331 332 330 333 337 337 338 338 335 336 334 332 330 329 328 328 328 328 327 326
337 338 337 336 335 334 334 333 333 334 333 332 332 333 333 333 334 332 330 329 328 328 326 328 331 336 333 327 330 335 334 332 332 331 330 329 329 328 326 326 325 325
336 336 336 335 335 334 334 333 333 333 333 333 333 334 334 335 333 332 331 331 330 328 327 329 332 334 326 326 328 328 331 331 330 331 331 330 328 327 326 325 324 324
335 335 334 334 334 334 334 334 333 333 333 333 333 335 335 334 333 333 331 331 331 329 329 329 328 330 325 324 325 325 326 327 328 329 329 328 328 327 327 325 323 324
336 335 334 334 334 335 334 334 333 333 333 334 334 335 334 333 332 330 329 329 328 327 329 330 329 328 324 322 321 322 323 326 326 326 327 328 328 328 328 326 324 324
336 335 335 334 335 334 334 333 333 333 334 334 334 332 332 331 331 330 330 330 331 332 331 332 333 327 323 321 319 318 320 324 324 327 327 328 328 329 329 327 325 325
336 335 334 334 334 334 333 333 333 333 333 334 335 334 333 332 330 329 329 328 329 331 330 327 329 324 320 318 316 316 320 325 324 324 324 325 327 328 329 327 327 325
336 335 334 333 333 333 332 333 333 333 334 337 335 332 330 330 329 329 328 327 327 329 328 325 327 320 316 315 315 315 318 322 323 324 325 326 327 329 328 327 327 325
337 336 334 333 333 332 332 332 334 335 336 338 332 330 330 330 329 328 327 328 328 328 327 324 324 320 314 312 313 314 320 324 324 324 323 324 326 327 328 327 328 335
338 336 334 333 332 332 332 332 332 333 335 336 332 331 329 329 330 327 326 326 327 325 329 323 323 323 316 314 314 313 319 323 324 323 323 323 325 326 326 327 326 330
338 336 334 333 332 332 332 332 333 334 332 333 330 329 328 328 330 326 324 325 325 324 326 324 325 326 326 316 313 312 313 321 323 321 323 324 324 326 326 325 324 324
Wind_Speed
6 4 5 4 3 4 4 3 3 4 3 2 2 2 2 1 0 1 3 2 1 0 0 1 0 1 1 2 2 1 1 2 2 3 2 1 2 2 2 2 2 1
7 6 4 4 3 3 3 3 3 3 3 3 4 3 3 2 2 3 1 0 0 1 2 2 2 2 3 3 3 3 3 2 3 2 2 2 2 1 1 2 2 2
7 6 6 5 5 4 5 4 3 3 3 4 4 4 3 2 2 2 1 1 3 3 3 3 4 4 4 4 3 3 3 3 3 3 3 3 3 2 2 2 2 2
7 8 7 6 6 6 5 4 4 3 3 5 3 3 4 3 2 3 2 3 3 3 3 3 4 4 4 4 4 3 3 3 3 3 3 3 3 3 3 3 2 2
8 8 7 6 6 5 6 5 4 4 5 5 5 4 3 3 3 3 3 2 2 2 3 3 3 3 4 3 3 3 3 3 3 3 3 4 4 3 3 3 2 3
7 8 7 7 5 5 6 5 4 4 5 4 4 3 4 4 4 3 4 4 3 3 3 4 4 3 3 3 2 3 3 3 3 3 4 4 4 4 3 3 2 3
8 8 7 6 6 6 5 5 4 6 6 5 3 4 4 4 4 5 4 4 5 4 4 4 4 3 3 3 3 3 3 3 3 3 4 4 3 4 3 3 3 3
8 7 7 6 6 5 5 5 6 6 5 4 4 4 4 6 5 4 5 5 5 5 5 5 4 4 4 4 4 3 3 3 4 4 3 3 3 3 3 3 3 3
8 7 7 7 6 5 6 6 7 7 5 6 6 6 5 6 6 6 6 6 5 6 5 5 5 5 5 4 4 4 4 4 4 3 3 3 3 4 4 3 3 4
8 8 9 9 8 7 8 7 8 8 6 6 8 7 7 6 7 7 6 6 6 6 6 6 6 5 5 5 5 5 5 5 4 4 4 4 4 4 4 4 4 4
9 9 10 9 8 7 8 8 9 8 4 8 7 6 5 4 4 4 5 5 6 6 6 6 6 6 5 5 5 5 5 5 4 4 4 5 5 5 5 5 5 5
9 9 9 9 8 8 9 8 8 4 4 4 4 4 3 3 3 3 3 4 4 5 4 4 4 4 5 6 6 6 5 4 4 4 4 4 4 4 4 5 5 6
10 8 8 8 7 7 7 6 6 5 2 5 3 2 1 1 4 4 4 4 3 2 2 3 4 4 4 5 5 5 5 4 4 4 4 4 5 6 6 5 5 5
9 8 7 7 7 7 7 7 5 4 4 4 4 4 3 3 3 3 4 3 3 2 4 4 4 4 4 4 4 4 4 4 4 5 5 5 5 5 5 6 6 6
8 8 7 7 7 7 7 7 6 4 4 4 2 1 2 3 4 4 4 4 4 4 5 4 4 5 3 4 5 4 4 5 5 5 6 5 5 5 5 5 5 5
9 8 8 8 7 7 7 6 5 5 4 4 4 4 4 4 4 4 5 5 5 5 4 4 4 3 4 8 7 5 5 6 5 5 5 5 5 5 6 5 5 5
9 8 9 9 8 7 6 6 6 5 5 4 4 4 5 5 5 5 6 6 6 5 5 4 4 3 8 9 9 9 5 4 5 6 5 6 5 5 6 6 5 5
6 7 8 8 7 8 7 6 6 5 5 4 4 5 6 6 6 6 7 7 6 5 4 4 4 7 10 9 9 9 7 5 5 5 5 5 5 5 5 5 5 5
6 7 7 7 7 7 6 6 5 5 5 4 6 7 6 6 7 6 6 6 5 5 5 5 4 6 10 10 10 10 10 6 3 4 5 6 5 5 6 5 4 3
7 7 7 8 7 6 6 6 6 6 6 6 6 6 6 6 6 6 5 5 5 5 5 4 4 6 9 11 11 9 8 6 4 4 4 6 6 6 7 5 4 4
8 8 8 8 7 7 7 7 7 6 6 6 6 6 6 6 5 5 5 5 5 5 4 5 5 8 10 10 9 10 10 5 3 3 4 6 7 7 7 5 4 5
9 8 8 7 8 7 8 7 7 7 7 7 5 5 4 3 4 4 5 5 5 5 4 4 4 4 4 4 8 9 6 3 3 4 5 6 7 7 7 6 5 6
8 9 8 8 8 8 8 8 7 7 7 6 6 5 4 4 4 5 5 6 5 5 4 1 2 7 5 5 7 6 3 3 3 4 5 6 6 6 6 6 5 5
9 9 9 8 8 9 9 8 8 7 7 6 6 6 4 5 5 6 5 4 3 1 4 3 1 4 6 8 5 3 4 2 3 5 5 5 6 6 6 6 5 10
10 10 10 10 10 10 9 9 8 7 5 6 6 5 4 4 4 5 2 1 4 4 4 3 0 2 1 4 2 4 3 2 4 5 5 5 5 6 5 5 5 7
10 11 11 11 10 9 8 8 6 5 5 5 4 3 3 3 1 1 2 3 3 4 1 0 1 1 1 2 2 3 4 3 4 5 4 4 4 5 5 5 5 6
Wind_Direction
148 149 149 156 156 142 144 149 161 158 182 185 170 219 209 224 149 238 250 244 203 178 205 255 203 181 214 240 245 237 232 230 253 270 243 221 263 243 275 297 306 256
160 161 149 140 143 148 158 161 181 169 186 191 207 214 213 195 239 243 223 208 288 245 228 212 208 223 236 225 227 234 249 241 253 245 243 253 252 236 264 273 274 283
160 159 156 157 166 174 173 190 182 176 176 223 214 190 201 220 228 187 209 225 247 255 244 232 229 232 229 225 218 218 224 239 250 252 224 248 232 229 251 264 266 257
164 162 165 165 172 186 189 175 181 186 215 234 214 194 183 189 188 241 235 235 231 251 257 244 240 243 236 239 233 228 220 220 231 230 239 246 234 215 241 238 241 265
166 161 168 174 181 168 165 164 180 204 220 221 195 198 207 215 196 204 215 231 225 253 268 273 263 249 235 225 215 218 228 239 241 224 227 245 247 231 231 214 235 267
168 164 161 159 167 159 160 166 188 218 233 227 217 193 182 179 187 208 214 219 233 238 250 264 276 267 258 249 216 228 240 247 246 228 229 233 240 225 223 188 215 240
167 166 161 160 155 158 161 175 206 228 225 223 221 215 198 194 199 214 223 224 227 227 232 239 236 249 247 232 233 244 239 227 244 241 239 243 234 247 221 213 225 227
163 159 155 153 161 166 173 188 214 227 228 218 217 229 207 212 214 223 222 220 220 228 224 221 225 232 240 229 224 232 240 239 245 243 244 254 249 243 220 216 217 217
157 162 158 157 167 181 190 200 216 228 220 219 224 229 225 217 218 219 222 217 220 226 227 228 231 235 228 211 210 215 230 242 239 228 231 250 264 259 241 219 210 216
165 172 167 166 178 187 199 204 214 227 219 219 217 215 219 222 217 220 222 219 224 233 230 233 236 234 227 211 208 213 220 224 229 231 230 233 242 252 249 226 218 221
174 174 171 171 181 190 199 208 219 229 189 211 211 212 217 215 226 220 215 216 227 237 241 233 233 232 228 219 214 214 217 221 219 223 230 234 235 241 246 236 232 223
178 176 172 173 183 193 204 211 220 204 184 175 160 168 194 210 227 245 234 245 238 241 233 228 227 223 219 214 212 215 221 223 221 224 229 228 232 236 242 243 238 235
178 181 170 176 187 198 205 214 214 213 149 138 157 147 134 283 277 264 265 255 240 202 197 220 235 237 232 221 215 216 220 222 225 223 228 235 240 241 246 243 242 243
180 176 177 182 192 201 204 211 208 188 156 163 152 165 193 212 238 263 272 243 220 228 257 258 263 264 259 234 217 213 210 222 227 231 235 240 241 242 241 245 247 249
175 177 178 184 190 191 200 203 202 187 175 170 180 188 187 230 248 253 264 277 276 268 264 263 250 243 213 195 203 207 207 219 226 233 238 245 255 259 255 253 255 254
173 176 183 189 191 194 193 190 187 185 185 190 191 192 200 208 237 258 256 255 264 265 239 227 250 234 198 191 189 196 208 218 220 230 236 244 255 264 273 272 268 267
170 172 178 186 193 192 188 184 184 183 187 193 201 204 205 214 220 236 250 259 253 231 238 252 250 216 200 204 212 216 213 218 222 234 241 248 245 245 253 264 274 276
162 159 168 179 178 186 185 185 181 179 186 193 204 215 220 218 224 229 240 246 240 241 242 235 223 216 206 215 224 233 229 223 229 234 240 246 244 241 245 250 260 274
175 169 172 178 186 186 184 175 177 186 198 206 217 219 219 220 225 228 232 231 226 224 228 235 243 232 220 222 230 235 239 233 247 251 256 261 261 255 252 248 253 276
183 179 182 192 193 185 180 182 184 199 206 211 217 222 223 227 226 230 236 232 231 232 234 233 231 241 232 227 229 231 239 228 231 248 262 267 265 263 257 251 252 254
187 183 190 195 192 185 183 188 192 202 210 214 214 217 218 221 226 226 235 233 232 226 222 227 234 238 242 237 224 217 228 220 230 242 257 263 265 263 259 251 245 228
183 185 191 192 188 186 187 193 197 199 211 217 215 213 207 212 237 232 237 241 235 224 219 232 249 288 301 256 224 229 211 202 210 230 248 258 261 260 254 246 231 227
182 185 192 193 191 188 192 194 196 203 213 206 205 206 220 231 236 238 239 238 241 213 202 246 30 44 29 338 298 263 206 221 224 240 250 256 257 252 248 247 236 231
185 189 194 196 193 193 195 197 194 197 201 190 195 200 212 226 229 243 244 235 228 60 59 103 104 343 5 10 12 208 215 247 266 269 267 267 270 266 258 254 245 245
188 190 194 197 197 198 194 193 192 190 187 180 189 185 211 228 244 238 244 40 81 98 67 65 101 283 41 86 135 190 208 234 252 255 266 272 274 278 271 260 263 264
189 193 198 198 197 196 194 193 186 180 177 167 168 165 198 221 197 181 106 92 82 78 124 189 171 206 230 268 298 283 243 253 257 257 268 279 285 287 295 287 274 276